Regional Weather Roundup
Issued by NWS

Home | Current Version | Previous Version | Text Only | Print | Product List | Glossary On
Versions: 1 2 3 4 5 6 7 8 9 10 11 12 13 14 15 16 17 18 19 20 21 22 23 24 25 26 27 28 29 30 31 32 33 34 35 36 37 38 39 40 41 42 43 44 45 46 47 48 49 50
000
ASUS43 KLOT 301010
RWRIL

ILLINOIS REGIONAL WEATHER ROUNDUP
NATIONAL WEATHER SERVICE CHICAGO/ROMEOVILLE IL
500 AM CDT TUE SEP 30 2014

NOTE: "FAIR" INDICATES FEW OR NO CLOUDS BELOW 12,000 FEET WITH NO
SIGNIFICANT WEATHER AND/OR OBSTRUCTIONS TO VISIBILITY.

* THESE STATIONS ARE NOT UNDER NWS QUALITY CONTROL. THEY ALSO MAY NOT
  REPORT WEATHER SUCH AS PRECIPITATION OR FOG.

ILZ001-002-007-009-015-016-024-301100-
NORTHWEST ILLINOIS

CITY           SKY/WX    TMP DP  RH WIND       PRES   REMARKS
MOLINE         NOT AVBL
SAVANNA*       CLOUDY    53  47  79 NE6       30.05S
$$

ILZ003-004-008-010-011-017-018-301100-
NORTH CENTRAL ILLINOIS

CITY           SKY/WX    TMP DP  RH WIND       PRES   REMARKS
ROCKFORD       DRIZZLE   50  46  86 NE8       30.08S
FREEPORT*      CLOUDY    48  45  87 NE8       30.07F
ROCHELLE*      CLOUDY    50  46  85 NE12      30.06S
DE KALB*       CLOUDY    48  44  85 NE10      30.06S
PERU*          CLOUDY    55  50  85 NE12      30.04S
$$

ILZ005-006-012>014-019>023-301100-
NORTHEAST ILLINOIS

CITY           SKY/WX    TMP DP  RH WIND       PRES   REMARKS
CHICAGO-OHARE  DRIZZLE   49  46  90 N10       30.04S
CHICAGO-MIDWAY CLOUDY    55  48  77 N15G22    30.03S
AURORA         CLOUDY    51  44  77 NE10      30.05R
LANSING*       CLOUDY    54  47  79 N9G16     30.02S
JOLIET*        CLOUDY    52  47  82 N7        30.04R
WAUKEGAN       CLOUDY    46  43  89 NW8       30.05S
DUPAGE AIRPORT CLOUDY    50  45  83 N13       30.05R
KANKAKEE*      CLOUDY    55  50  83 N9        30.03R
WHEELING       CLOUDY    49  46  90 N9        30.05S FOG
MORRIS*        CLOUDY    54  49  85 NE7       30.02S
ROMEOVILLE*    CLOUDY    52  46  80 NE14G20   30.03S
NORTHERLY ISL    N/A     53  48  83 N13         N/A
$$

LMZ740>746-301100-
SOUTHERN LAKE MICHIGAN

STATION/POSITION SKY/WX   TEMP    WIND        PRES    VSBY  WAVE
                          AIR SEA DIR/SP/G                  HT/PER
                          (F)     (DEG/KT/KT) (MB)    (MI)  (FT/S)
SOUTHERN BUOY              52 61  350/ 17/ 23 1016.8S         7/ 8
WAUKEGAN HARBOR                   340/ 11/ 15   N/A
HARRISON CRIB              53      10/ 18/ 23   N/A
BURNHAM HARBOR             53     350/ 15/ 19   N/A
CALUMET HARBOR             54     350/ 12/ 18 1015.8S
MICHIGAN CITY              54     360/ 19/ 24   N/A
MICHIGAN CITY 6N           55 65   20/ 16/ 21   N/A           8/ 2
ST. JOSEPH                 54 63   10/ 17/ 23   N/A           6/ 2
$$

ILZ025>027-034>036-040-047-049-050-058-095>099-301100-
WEST-CENTRAL ILLINOIS

CITY           SKY/WX    TMP DP  RH WIND       PRES   REMARKS
QUINCY         CLEAR     61  57  87 CALM      29.96S
GALESBURG*     CLOUDY    55  54  94 NE10      30.00S FOG
MACOMB*        CLOUDY    57  56  97 NE9       30.01S FOG
JACKSONVILLE*  CLEAR     60  57  90 N5        29.97R
PITTSFIELD*    CLEAR     59  55  86 NW5       29.96F
$$

ILZ028>032-037-038-041>044-048-051>054-059>061-301100-
CENTRAL ILLINOIS

CITY           SKY/WX    TMP DP  RH WIND       PRES   REMARKS
PONTIAC        CLOUDY    57  54  88 NE7       30.02R
DECATUR        FOG       59  58  96 NE12      29.98R VSB 1/2
PEORIA         CLOUDY    60  54  80 E12       30.00S
LACON*         CLOUDY    56  51  85 E7        30.01S
LINCOLN*       CLOUDY    59  57  94 NE8       29.97R FOG
SPRINGFIELD    PTCLDY    59  57  93 NE10      29.97S FOG
TAYLORVILLE    CLEAR     57  54  88 N5        29.96R
$$

ILZ033-039-045-046-055>057-062-063-301100-
EAST-CENTRAL ILLINOIS

CITY           SKY/WX    TMP DP  RH WIND       PRES   REMARKS
CHAMPAIGN      CLOUDY    57  55  94 NE14      29.98S FOG
DANVILLE*      CLOUDY    56  55  95 N12       29.96R
RANTOUL*       CLOUDY    59  55  85 NE10      29.99S
MATTOON        MOCLDY    56  55  97 N9        29.96R
PARIS*         CLOUDY    59  59 100 N3        29.97S FOG
$$

ILZ079-100>102-301100-
SOUTHWEST ILLINOIS

CITY           SKY/WX    TMP DP  RH WIND       PRES   REMARKS
ALTON            N/A     56  54  94 CALM      29.96R FOG
BELLEVILLE     CLEAR     57  57 100 W2        29.95S FOG
CAHOKIA*       CLEAR     58  56  93 CALM      29.96R
SPARTA*        CLEAR     60  57  89 CALM      29.96F
$$

ILZ064>066-069>071-074>076-080>082-084>086-088>090-092>094-301100-
SOUTH-CENTRAL ILLINOIS

CITY           SKY/WX    TMP DP  RH WIND       PRES   REMARKS
CARBONDALE     CLEAR     54  53  97 CALM      29.95S FOG
CAIRO*         FOG       55  54  94 CALM      29.94F VSB 3/4
EFFINGHAM*     CLEAR     56  53  90 CALM      29.95R
MARION         CLEAR     59  59 100 S3        29.96S
CENTRALIA*     CLEAR     55  52  92 CALM      29.95S FOG
SALEM*         CLEAR     60  59  97 CALM      29.95S FOG
METROPOLIS*    CLEAR     53  53 100 CALM      29.94S
$$

ILZ067-068-072-073-078-083-087-091-301100-
SOUTHEAST ILLINOIS

CITY           SKY/WX    TMP DP  RH WIND       PRES   REMARKS
LAWRENCEVILLE  CLEAR     55  53  93 CALM      29.94S FOG
FLORA*         CLEAR     54  53  95 CALM      29.95S
FAIRFIELD*     CLEAR     55  54  94 CALM      29.94S FOG
HARRISBURG*    CLEAR     54  54 100 CALM      29.96S
ROBINSON*      CLEAR     54  53  97 CALM      29.94S
CARMI*         CLEAR     54  54  99 CALM      29.94S FOG
$$

ABBREVIATIONS USED IN REMARKS
   TC - TEMPERATURE IN CELSIUS
  WCI - WIND CHILL INDEX
   HX - HEAT INDEX
  VSB - VISIBILITY
$$



USA.gov is the U.S. government's official web portal to all federal, state and local government web resources and services.